TJS-16

Last updated on Sun Apr 12 2026 00:02:57 GMT+0000 (Coordinated Universal Time)

1 63397U 25064A 26101.79843330 -.00000103 00000+0 00000+0 0 9995 2 63397 0.9257 81.6884 0004788 275.4284 290.9262 1.00271757 3729
UTC large
Height (km)
Speed (km/s)
/
Latitude / Longitude
Inclination (degrees)
Orbital Period (minutes)
Azimuth
Elevation
Range (km)
Doppler Factor

Next 0 passes for location: London (51.5072 / 0.1276)

Sorry there are no passes over London.
TJS-16